STARLINK-1627, 46168

Orbit data source: Space-Track

STARLINK-1627, 46168 is a payload satellite owned by SpaceX/Seattle (US) in LEO that was launched on Tue, 18 Aug 2020 UTC via an FALCON 9 launch vehicle from the Air Force Eastern Test Range (AFETR). Payload-class satellites include a variety of spacecraft equipped with specific instruments for various scientific and technological missions. These include communications satellites like Starlink; space stations such as the ISS; scientific satellites like the Hubble; Earth observation satellites from companies like Planet Labs, Umbra, and HawkEye 360; GPS; miniature CubeSats for education and research; and military/defense satellites.

Loading next visibility...
Identifier
46168, 2020-057BD
Orbit
LEO
Country
Flag of USUS
Related business
Manufacturer
SpaceX/Seattle
Mission
Operational Commercial Communications
Bus & Motor
STARLINK, Unknown motor
Mass
260 kg wet, ~248 kg dry
Launch date (UTC)
2020-08-18 (5 years ago)
Launch vehicle
FALCON 9
Launch site
Air Force Eastern Test Range (AFETR)
Object type
Payload
Rocket body
Debris
Shape & HBR
Box + 1 Pan, 10.1 m
Radar Cross Section
13.562 m², Large (>1 m²)

Expand to show TLE details & history
Last TLE update: 14 hours ago

TLE from 14 hours ago
0 STARLINK-1627
1 46168U 20057BD  25287.28004174  .00483884  00000-0  29268-1 0  9992
2 46168  53.0524 203.9506 0002053 138.9458 221.1687 15.08118750284691
Epoch: 2025-10-14T06:43Z
TLE epoch observation values (Epoch: 2025-10-14T06:43:15.606Z)
Latitude
0.00003°
Longitude
80.06486°
Altitude
543.898 km
Speed
7.591 km/s
True Right ascension
13h 35m 48s
True Declination
0° 00' 00"
Sunlit
Object was in daylight at epoch
Visualization orbit readout
Latitude
Unknown
Longitude
Unknown
Altitude
Unknown
Speed
Unknown
Apparent Right ascension
Unknown
Apparent Declination
Unknown
Sunlit
N/A
Visualization observer readout
Local Sidereal Time
15:26:42
Azimuth
Unknown
Elevation
Unknown
Doppler factor
Unknown
Orbital elements
Apogee altitude
543.641 km
Perigee altitude
540.799 km
Semi-major axis
6,920.357 km
Eccentricity
0.00021
Inclination
53.0524°
RAAN
203.9506°
Arg. of periapsis
138.9458°
True anomaly
221.15322°
Mean anomaly
221.1687°
Eccentric anomaly
221.16096°
Mean motion
3.77008 °/min
Orbital period
95.49 mins
BSTAR
0.029268
Loading maneuver chart data...
Computing Atmospheric mass density...
Loading historical data...
Loading historical data...
Loading historical data...
Loading historical data...
Loading historical data...
Loading historical data...
Loading historical data...

Documentation

Showing up to 5 results
|